Waarnemingen

Advertentie
Mijn weer
Antwerpen, België (6450): temperatuur & dauwpunt: 19.10.2020 09:00:00 - 25.10.2020 09:00:00 (CET)Antwerpen, België (6450): windsnelheid & windstoten: 19.10.2020 09:00:00 - 25.10.2020 09:00:00 (CET)Antwerpen, België (6450): windrichting: 19.10.2020 09:00:00 - 25.10.2020 09:00:00 (CET)Antwerpen, België (6450): luchtdruk: 19.10.2020 09:00:00 - 25.10.2020 09:00:00 (CET)Antwerpen, België (6450): zicht: 19.10.2020 09:00:00 - 25.10.2020 09:00:00 (CET)
Datum & Tijd tt [°C] td [°C] ff [km/u] ff [kn] fx [km/u] fx [kn] dd ppp [hPa] vv [km]
25.10.2020 09:00:00 12,1 10,0 15 8 29 16 ZZW 1002,3 10
25.10.2020 08:00:00 11,3 9,4 13 7 25 14 ZZW 1001,9 10
25.10.2020 07:00:00 11,2 9,3 16 9 - - Z 1001,6 10
25.10.2020 06:00:00 11,7 9,7 16 9 54 29 ZW 1002,0 10
25.10.2020 05:00:00 15,4 9,9 34 18 58 31 ZZW 1000,9 10
25.10.2020 04:00:00 15,6 9,9 29 16 - - Z 1001,4 10
25.10.2020 03:00:00 15,6 10,0 29 16 54 29 ZZW 1001,9 10
25.10.2020 02:00:00 15,7 10,2 35 19 58 31 Z 1002,6 10
25.10.2020 01:00:00 - - - - - - - - -
25.10.2020 00:00:00 15,4 11,7 35 19 65 35 Z 1004,0 10
24.10.2020 23:00:00 16,2 11,4 31 17 50 27 Z 1004,4 10
24.10.2020 22:00:00 16,3 11,7 31 17 - - Z 1004,9 10
24.10.2020 21:00:00 16,1 12,0 26 14 47 25 Z 1005,5 10
24.10.2020 20:00:00 15,8 12,3 26 14 43 23 Z 1006,3 10
24.10.2020 19:00:00 15,5 12,1 25 14 - - Z 1006,9 35
24.10.2020 18:00:00 15,3 12,0 22 12 43 23 Z 1007,6 35
24.10.2020 17:00:00 15,6 12,1 22 12 40 21 ZZW 1008,1 10
24.10.2020 16:00:00 15,7 11,9 24 13 - - Z 1008,7 10
24.10.2020 15:00:00 15,4 12,2 24 13 40 21 ZZW 1009,4 10
24.10.2020 14:00:00 14,4 12,2 24 13 43 23 ZZW 1010,0 6
24.10.2020 13:00:00 15,5 10,9 22 12 - - ZZW 1010,6 10
24.10.2020 12:00:00 14,8 10,5 21 11 36 19 ZZW 1011,3 10
24.10.2020 11:00:00 13,5 11,3 18 10 32 18 ZZW 1011,5 10
24.10.2020 10:00:00 12,4 11,0 15 8 - - ZZW 1011,6 8
24.10.2020 09:00:00 12,4 10,6 18 10 32 18 ZZW 1011,6 10
24.10.2020 08:00:00 12,0 10,7 18 10 32 18 ZZW 1011,5 2,5
24.10.2020 07:00:00 12,9 10,3 21 11 - - ZZW 1011,5 10
24.10.2020 06:00:00 12,9 10,2 13 7 25 14 ZZW 1011,9 10
24.10.2020 05:00:00 12,6 10,2 13 7 22 12 ZZW 1012,0 10
24.10.2020 04:00:00 12,9 9,8 13 7 - - ZW 1012,1 10
24.10.2020 03:00:00 13,0 10,0 16 9 32 18 ZW 1012,5 10
24.10.2020 02:00:00 13,0 10,1 15 8 25 14 ZW 1012,3 10
24.10.2020 01:00:00 13,0 10,4 11 6 - - ZW 1012,4 30
24.10.2020 00:00:00 13,1 10,5 13 7 25 14 ZZW 1012,3 10
23.10.2020 23:00:00 13,2 10,5 11 6 25 14 ZZW 1012,4 10
23.10.2020 22:00:00 13,9 10,8 15 8 - - WZW 1012,1 10
23.10.2020 21:00:00 14,3 10,3 9 5 22 12 ZW 1011,2 10
23.10.2020 20:00:00 15,0 10,7 13 7 22 12 ZW 1010,9 10
23.10.2020 19:00:00 15,0 11,0 11 6 - - ZZW 1010,5 30
23.10.2020 18:00:00 15,8 10,8 13 7 25 14 ZZW 1010,4 10
23.10.2020 17:00:00 16,5 10,4 11 6 25 14 ZW 1010,1 10
23.10.2020 16:00:00 17,7 11,3 11 6 - - ZW 1009,8 10
23.10.2020 15:00:00 17,5 12,0 15 8 29 16 ZW 1009,7 10
23.10.2020 14:00:00 16,9 12,7 11 6 25 14 WZW 1010,0 10
23.10.2020 13:00:00 15,5 13,2 13 7 - - ZW 1010,3 10
23.10.2020 12:00:00 14,7 12,7 13 7 18 10 ZW 1010,8 8
23.10.2020 11:00:00 13,8 12,5 9 5 18 10 ZW 1010,8 4,0
23.10.2020 10:00:00 11,7 10,4 2 1 - - - 1010,9 4,0
23.10.2020 09:00:00 10,1 9,0 4 2 4 2 - 1010,8 0,5
23.10.2020 08:00:00 9,2 8,5 2 1 7 4 ONO 1010,6 0,3
23.10.2020 07:00:00 9,2 8,5 2 1 - - O 1010,5 0,8
23.10.2020 06:00:00 9,5 9,5 2 1 7 4 OZO 1010,8 0,1
23.10.2020 05:00:00 9,1 8,5 4 2 7 4 - 1011,1 0,3
23.10.2020 04:00:00 7,8 7,5 4 2 - - OZO 1011,6 0,3
23.10.2020 03:00:00 7,6 7,0 5 3 7 4 ZZO 1012,2 0,4
23.10.2020 02:00:00 9,3 9,1 4 2 7 4 ZO 1012,3 0,3
23.10.2020 01:00:00 12,1 10,5 7 4 - - WZW 1012,6 10
23.10.2020 00:00:00 9,1 8,4 8 4 11 6 ZZW 1012,6 1,4
22.10.2020 23:00:00 12,1 11,1 5 3 11 6 ZZW 1012,7 3,4
22.10.2020 22:00:00 12,8 11,6 4 2 - - ZW 1012,5 20
22.10.2020 21:00:00 13,1 11,9 9 5 11 6 ZZW 1012,4 10
22.10.2020 20:00:00 13,3 11,7 5 3 7 4 ZW 1011,9 10
22.10.2020 19:00:00 14,7 12,5 5 3 - - WZW 1012,1 10
22.10.2020 18:00:00 15,7 12,6 9 5 25 14 ZW 1011,4 10
22.10.2020 17:00:00 16,6 12,5 13 7 25 14 ZW 1011,0 10
22.10.2020 16:00:00 16,7 12,6 13 7 - - ZZW 1010,9 10
22.10.2020 15:00:00 17,0 12,0 8 4 25 14 ZW 1010,9 10
22.10.2020 14:00:00 16,5 12,5 15 8 29 16 WZW 1011,3 10
22.10.2020 13:00:00 16,9 12,4 15 8 - - ZW 1011,3 10
22.10.2020 12:00:00 16,7 10,9 16 9 32 18 ZW 1011,8 10
22.10.2020 11:00:00 16,3 11,0 21 11 32 18 ZZW 1011,9 10
22.10.2020 10:00:00 14,9 11,8 16 9 - - ZZW 1011,7 10
22.10.2020 09:00:00 14,0 10,8 11 6 22 12 ZZW 1011,3 10
22.10.2020 08:00:00 13,0 10,7 11 6 22 12 ZZW 1010,8 10
22.10.2020 07:00:00 12,9 10,8 11 6 - - ZW 1009,9 10
22.10.2020 06:00:00 13,6 11,1 13 7 29 16 ZZW 1009,5 10
22.10.2020 05:00:00 14,1 11,4 13 7 29 16 ZW 1009,3 10
22.10.2020 04:00:00 14,2 11,5 15 8 - - ZZW 1009,5 10
22.10.2020 03:00:00 14,5 11,7 11 6 18 10 ZW 1008,9 10
22.10.2020 02:00:00 15,0 11,9 13 7 25 14 ZW 1008,9 10
22.10.2020 01:00:00 15,6 12,5 15 8 - - ZW 1008,5 10
22.10.2020 00:00:00 16,5 12,9 16 9 32 18 ZW 1007,7 10
21.10.2020 23:00:00 16,0 13,0 13 7 29 16 ZW 1007,4 10
21.10.2020 22:00:00 16,9 12,6 13 7 - - ZW 1006,6 10
21.10.2020 21:00:00 17,9 11,9 24 13 50 27 WZW 1005,6 10
21.10.2020 20:00:00 18,8 11,3 29 16 50 27 WZW 1004,1 10
21.10.2020 19:00:00 19,4 11,2 31 17 - - ZW 1002,8 10
21.10.2020 18:00:00 19,8 12,3 32 18 54 29 ZW 1001,5 40
21.10.2020 17:00:00 20,2 12,1 35 19 68 37 ZW 1000,3 10
21.10.2020 16:00:00 21,0 12,5 35 19 - - ZW 999,4 10
21.10.2020 15:00:00 21,0 12,1 42 23 68 37 ZW 998,3 10
21.10.2020 14:00:00 20,5 12,0 35 19 76 41 ZZW 998,0 10
21.10.2020 13:00:00 20,4 11,0 44 24 - - ZZW 998,0 10
21.10.2020 12:00:00 19,0 11,5 28 15 43 23 Z 998,5 10
21.10.2020 11:00:00 15,1 12,1 21 11 29 16 ZZO 999,4 10
21.10.2020 10:00:00 13,3 11,5 16 9 - - ZO 1000,4 10
21.10.2020 09:00:00 12,9 11,4 18 10 29 16 ZZO 1001,7 7
21.10.2020 08:00:00 12,4 11,0 15 8 22 12 ZZO 1001,7 7
21.10.2020 07:00:00 12,4 11,1 13 7 - - ZZO 1002,1 9
21.10.2020 06:00:00 12,6 11,3 16 9 22 12 ZZO 1002,9 7
21.10.2020 05:00:00 13,0 11,6 13 7 22 12 ZZO 1003,2 7
21.10.2020 04:00:00 13,2 11,8 11 6 - - ZZO 1003,7 10
21.10.2020 03:00:00 13,4 11,8 11 6 14 8 ZZO 1004,5 10
21.10.2020 02:00:00 13,9 12,0 9 5 22 12 ZZO 1005,1 10
21.10.2020 01:00:00 14,2 12,0 15 8 - - Z 1005,5 10
21.10.2020 00:00:00 14,3 12,1 15 8 25 14 Z 1005,8 10
20.10.2020 23:00:00 14,4 12,3 16 9 25 14 ZZO 1006,4 10
20.10.2020 22:00:00 14,5 12,4 15 8 - - Z 1007,0 10
20.10.2020 21:00:00 14,5 12,5 18 10 32 18 Z 1006,8 10
20.10.2020 20:00:00 14,7 12,5 16 9 36 19 Z 1007,2 10
20.10.2020 19:00:00 15,2 12,3 18 10 - - Z 1007,3 10
20.10.2020 18:00:00 15,2 12,3 16 9 29 16 Z 1007,3 10
20.10.2020 17:00:00 15,3 11,9 13 7 32 18 Z 1007,7 10
20.10.2020 16:00:00 15,9 10,9 21 11 - - Z 1007,4 10
20.10.2020 15:00:00 16,0 10,0 16 9 - - ZZW - 10
20.10.2020 14:00:00 16,0 10,0 18 10 - - ZZW - 10
20.10.2020 13:00:00 16,0 10,0 22 12 - - ZZW - 10
20.10.2020 12:00:00 15,0 10,0 18 10 - - Z - 10
20.10.2020 11:00:00 13,2 9,2 15 8 25 14 Z 1008,3 10
20.10.2020 10:00:00 12,8 8,5 13 7 - - Z 1008,0 10
20.10.2020 09:00:00 12,3 7,8 11 6 25 14 Z 1008,1 10
20.10.2020 08:00:00 11,4 7,1 13 7 25 14 Z 1007,7 10
20.10.2020 07:00:00 10,5 6,6 11 6 - - Z 1007,4 10
20.10.2020 06:00:00 8,9 5,9 13 7 18 10 ZO 1007,5 10
20.10.2020 05:00:00 7,9 5,3 11 6 18 10 ZO 1008,2 10
20.10.2020 04:00:00 7,2 5,1 11 6 - - OZO 1009,1 10
20.10.2020 03:00:00 7,6 5,1 8 4 14 8 ZO 1010,2 10
20.10.2020 02:00:00 8,4 4,9 9 5 22 12 ZO 1011,0 10
20.10.2020 01:00:00 7,0 4,8 13 7 - - ZO 1012,0 10
20.10.2020 00:00:00 8,2 5,7 13 7 18 10 OZO 1012,9 10
19.10.2020 23:00:00 8,0 5,3 11 6 18 10 O 1013,6 10
19.10.2020 22:00:00 8,9 6,2 11 6 - - ZO 1014,5 10
19.10.2020 21:00:00 9,5 6,4 16 9 25 14 OZO 1015,1 10
19.10.2020 20:00:00 9,0 6,3 11 6 14 8 ZO 1016,3 10
19.10.2020 19:00:00 10,6 6,3 11 6 - - ZZO 1017,2 10
19.10.2020 18:00:00 11,6 6,3 11 6 18 10 ZZO 1017,2 10
19.10.2020 17:00:00 12,6 7,0 13 7 18 10 ZO 1017,6 10
19.10.2020 16:00:00 13,6 6,5 11 6 - - ZZO 1018,6 10
19.10.2020 15:00:00 14,2 4,7 13 7 22 12 ZZW 1019,1 10
19.10.2020 14:00:00 13,7 7,2 9 5 25 14 ZZO 1019,9 10
19.10.2020 13:00:00 13,4 6,6 16 9 - - Z 1020,8 10
19.10.2020 12:00:00 12,8 7,0 11 6 22 12 Z 1021,4 10
19.10.2020 11:00:00 11,7 7,4 11 6 18 10 Z 1021,7 10
19.10.2020 10:00:00 10,3 8,0 8 4 - - ZZO 1022,3 10
19.10.2020 09:00:00 9,4 7,8 4 2 7 4 - 1022,3 10

tt = temperatuur
td = dauwpunt
ff = windsnelheid
fx = windstoten
dd = windrichting
ppp = luchtdruk
vv = zicht

Weerstations in de omgeving